Temp
-10 -11 -12 -12 -11 -11 -11 -11 -11 -12 -12 -11 -11 -10 -11 -10 -10 -11 -11 -11 -11 -11 -11 -11 -11 -11 -12 -12 -12 -12 -12 -12 -12 -13 -13 -13 -13 -13 -13 -13 -13 -13 -13 -13
-11 -11 -13 -12 -11 -11 -11 -11 -11 -12 -12 -11 -11 -10 -11 -11 -10 -10 -11 -11 -12 -11 -11 -11 -11 -12 -12 -12 -12 -12 -13 -13 -13 -13 -13 -13 -13 -13 -13 -13 -13 -13 -14 -14
-11 -11 -12 -12 -12 -11 -12 -11 -11 -11 -12 -11 -10 -9 -10 -11 -11 -11 -11 -11 -11 -12 -12 -12 -12 -12 -12 -13 -13 -13 -13 -13 -14 -14 -14 -13 -13 -13 -14 -14 -14 -15 -15 -16
-11 -12 -12 -12 -12 -12 -12 -12 -12 -11 -11 -11 -11 -9 -10 -10 -11 -11 -12 -12 -12 -12 -12 -12 -12 -13 -13 -13 -13 -14 -13 -14 -14 -14 -14 -14 -14 -15 -15 -15 -16 -16 -16 -16
-11 -11 -12 -12 -12 -12 -12 -12 -12 -12 -12 -12 -12 -11 -10 -10 -10 -11 -12 -12 -12 -13 -13 -13 -13 -14 -14 -14 -14 -14 -14 -14 -14 -14 -15 -15 -16 -16 -17 -17 -17 -17 -17 -17
-12 -12 -12 -12 -12 -13 -13 -13 -13 -13 -13 -12 -12 -12 -8 -12 -11 -11 -11 -12 -12 -13 -13 -13 -13 -14 -14 -14 -15 -15 -15 -15 -15 -15 -16 -16 -17 -17 -18 -18 -18 -18 -18 -19
-13 -13 -13 -12 -13 -13 -13 -14 -14 -13 -13 -12 -13 -12 -10 -12 -11 -12 -12 -13 -13 -13 -14 -14 -14 -15 -15 -15 -15 -15 -15 -16 -16 -17 -17 -17 -18 -18 -19 -18 -19 -19 -19 -19
-13 -13 -13 -13 -14 -14 -13 -14 -14 -14 -14 -13 -14 -11 -12 -12 -12 -12 -12 -13 -14 -14 -14 -14 -14 -15 -16 -16 -16 -17 -17 -17 -17 -18 -18 -19 -19 -19 -19 -19 -20 -20 -20 -20
-14 -14 -13 -14 -14 -15 -15 -14 -15 -16 -15 -15 -13 -12 -12 -13 -13 -13 -13 -13 -13 -14 -14 -15 -16 -16 -16 -16 -17 -17 -18 -18 -18 -19 -19 -19 -19 -19 -20 -20 -20 -19 -19 -20
-15 -15 -15 -15 -15 -16 -16 -15 -16 -16 -16 -16 -14 -15 -15 -14 -13 -13 -13 -13 -14 -14 -14 -15 -15 -16 -17 -18 -18 -19 -19 -19 -19 -19 -19 -19 -19 -19 -19 -19 -19 -20 -20 -21
-16 -16 -15 -15 -16 -16 -16 -16 -16 -16 -16 -17 -16 -17 -16 -15 -15 -15 -14 -14 -15 -15 -15 -16 -17 -18 -18 -18 -19 -19 -19 -19 -19 -19 -19 -19 -19 -20 -20 -20 -21 -21 -21 -22
-17 -17 -17 -17 -17 -17 -17 -17 -17 -17 -17 -17 -17 -16 -17 -17 -17 -17 -17 -17 -17 -17 -17 -17 -18 -18 -18 -19 -20 -20 -20 -19 -20 -20 -19 -20 -20 -21 -20 -21 -22 -22 -22 -22
-19 -19 -19 -19 -19 -19 -19 -19 -19 -19 -18 -18 -19 -18 -18 -18 -18 -18 -19 -19 -18 -18 -19 -19 -19 -19 -19 -20 -20 -20 -20 -19 -20 -20 -21 -21 -21 -21 -22 -22 -22 -22 -22 -23
-20 -20 -21 -20 -20 -20 -20 -19 -19 -19 -19 -19 -19 -19 -19 -19 -19 -19 -19 -19 -19 -19 -19 -19 -20 -20 -20 -20 -20 -20 -20 -21 -21 -21 -21 -21 -21 -22 -22 -22 -22 -23 -23 -23
-21 -21 -21 -21 -21 -20 -20 -20 -20 -20 -20 -20 -20 -20 -20 -20 -20 -20 -20 -20 -20 -20 -20 -20 -20 -21 -20 -20 -20 -21 -21 -21 -22 -22 -22 -22 -22 -22 -22 -23 -23 -23 -23 -23
-21 -21 -21 -21 -21 -21 -21 -21 -21 -20 -21 -21 -21 -20 -22 -21 -21 -21 -21 -21 -21 -20 -20 -21 -21 -21 -21 -21 -21 -21 -21 -22 -22 -22 -22 -22 -23 -24 -24 -24 -24 -24 -24 -24
-22 -22 -22 -22 -22 -23 -21 -21 -21 -21 -22 -23 -22 -21 -21 -22 -22 -22 -21 -21 -21 -21 -21 -21 -21 -21 -22 -22 -23 -23 -22 -23 -23 -23 -24 -25 -24 -24 -24 -24 -24 -24 -25 -25
-23 -23 -23 -23 -23 -23 -22 -21 -22 -23 -23 -23 -23 -23 -22 -22 -22 -23 -23 -23 -22 -22 -22 -23 -23 -23 -23 -23 -23 -23 -24 -24 -24 -25 -25 -24 -24 -25 -25 -24 -25 -25 -25 -25
-24 -24 -24 -24 -23 -23 -22 -23 -23 -23 -23 -24 -24 -24 -24 -24 -24 -24 -24 -24 -23 -24 -24 -24 -24 -24 -24 -24 -24 -24 -25 -25 -25 -25 -25 -25 -25 -25 -25 -25 -25 -25 -25 -25
-24 -24 -24 -24 -24 -24 -23 -24 -24 -25 -24 -24 -25 -25 -25 -25 -24 -25 -25 -25 -25 -25 -25 -25 -25 -25 -25 -25 -25 -25 -25 -25 -26 -26 -25 -25 -25 -25 -25 -25 -26 -25 -25 -25
-25 -25 -25 -24 -25 -25 -24 -25 -25 -25 -25 -25 -25 -25 -25 -26 -26 -26 -25 -25 -25 -25 -25 -25 -25 -25 -25 -25 -25 -26 -26 -26 -26 -25 -25 -25 -26 -26 -26 -25 -26 -26 -25 -25
-25 -25 -25 -25 -25 -25 -25 -26 -26 -26 -25 -26 -26 -26 -26 -26 -26 -26 -26 -26 -26 -26 -26 -26 -26 -26 -26 -26 -26 -26 -26 -26 -25 -26 -25 -26 -26 -26 -26 -26 -26 -26 -26 -26
-25 -25 -25 -25 -25 -25 -25 -26 -26 -26 -26 -26 -26 -26 -26 -26 -26 -26 -26 -27 -27 -27 -26 -27 -26 -26 -26 -26 -26 -26 -26 -26 -26 -26 -26 -26 -26 -26 -26 -26 -26 -26 -26 -26
-26 -26 -26 -26 -25 -25 -26 -26 -26 -26 -26 -26 -26 -26 -26 -26 -26 -26 -27 -27 -27 -27 -27 -27 -27 -26 -26 -26 -26 -26 -26 -26 -26 -26 -26 -26 -26 -26 -26 -26 -26 -26 -26 -26
-26 -26 -25 -25 -25 -25 -26 -27 -26 -26 -26 -26 -26 -26 -26 -26 -26 -26 -27 -27 -27 -26 -26 -26 -26 -26 -26 -26 -26 -26 -26 -26 -26 -26 -26 -27 -27 -27 -27 -26 -26 -26 -27 -27
-26 -25 -25 -25 -26 -26 -26 -26 -26 -26 -26 -26 -26 -26 -26 -26 -27 -27 -27 -27 -27 -27 -27 -26 -27 -27 -26 -26 -26 -26 -26 -26 -26 -27 -27 -27 -27 -27 -27 -27 -27 -27 -27 -27
Height
5769 5769 5774 5772 5774 5776 5778 5778 5777 5781 5778 5777 5777 5777 5782 5780 5779 5782 5782 5781 5782 5783 5783 5784 5784 5783 5783 5782 5781 5779 5777 5775 5772 5771 5770 5767 5765 5763 5761 5759 5757 5754 5751 5748
5763 5762 5766 5762 5764 5767 5769 5770 5772 5773 5771 5768 5770 5771 5773 5775 5774 5773 5773 5773 5773 5772 5774 5774 5773 5773 5773 5772 5770 5768 5766 5765 5763 5760 5757 5754 5752 5750 5748 5745 5742 5739 5735 5733
5755 5756 5757 5757 5757 5758 5760 5762 5764 5763 5764 5762 5760 5762 5764 5767 5764 5765 5763 5764 5763 5764 5762 5762 5762 5762 5762 5761 5760 5758 5756 5753 5750 5747 5743 5741 5738 5736 5733 5730 5727 5725 5722 5718
5745 5747 5746 5750 5750 5752 5751 5751 5754 5755 5755 5757 5754 5750 5755 5754 5756 5756 5756 5754 5754 5753 5753 5753 5753 5752 5751 5749 5747 5746 5744 5741 5737 5733 5731 5728 5725 5723 5719 5717 5714 5712 5710 5707
5736 5737 5737 5738 5741 5740 5741 5741 5742 5743 5744 5745 5746 5744 5744 5742 5744 5746 5746 5743 5742 5740 5740 5739 5738 5737 5736 5735 5733 5731 5729 5726 5723 5722 5718 5715 5712 5709 5706 5704 5701 5698 5696 5693
5725 5725 5727 5728 5729 5728 5729 5731 5731 5731 5731 5732 5734 5734 5735 5736 5731 5727 5730 5731 5730 5729 5728 5727 5725 5722 5721 5720 5718 5716 5713 5711 5709 5707 5705 5701 5698 5695 5693 5690 5687 5685 5683 5680
5710 5713 5713 5714 5713 5715 5718 5719 5718 5716 5714 5721 5720 5719 5727 5718 5716 5720 5718 5715 5714 5714 5714 5713 5712 5710 5708 5706 5704 5702 5700 5699 5697 5694 5691 5689 5686 5683 5680 5677 5675 5672 5670 5668
5697 5701 5701 5705 5704 5701 5702 5704 5705 5700 5705 5709 5702 5706 5707 5704 5703 5703 5703 5702 5700 5697 5695 5695 5694 5692 5692 5691 5690 5688 5687 5684 5681 5679 5678 5676 5673 5671 5668 5666 5663 5661 5657 5654
5683 5686 5687 5690 5690 5688 5691 5688 5692 5684 5689 5688 5691 5694 5691 5691 5689 5687 5688 5686 5685 5684 5682 5681 5680 5679 5678 5676 5674 5672 5670 5669 5669 5668 5667 5665 5662 5659 5657 5654 5651 5649 5647 5643
5669 5671 5673 5674 5676 5675 5674 5677 5674 5673 5674 5674 5681 5680 5678 5673 5671 5673 5672 5672 5671 5670 5669 5667 5665 5664 5662 5661 5660 5659 5658 5656 5656 5655 5654 5652 5650 5648 5646 5644 5642 5638 5634 5631
5654 5659 5660 5661 5662 5661 5662 5662 5660 5659 5660 5660 5663 5667 5661 5658 5659 5658 5658 5658 5657 5655 5654 5653 5652 5651 5649 5649 5648 5647 5645 5643 5642 5641 5639 5638 5636 5637 5635 5633 5630 5626 5622 5619
5643 5645 5646 5646 5643 5644 5643 5645 5646 5643 5650 5647 5647 5652 5647 5644 5644 5643 5643 5645 5644 5642 5640 5638 5637 5636 5634 5634 5634 5633 5629 5629 5628 5628 5628 5626 5625 5625 5622 5619 5616 5614 5610 5608
5626 5627 5632 5630 5631 5631 5629 5631 5633 5632 5632 5634 5632 5633 5632 5631 5631 5632 5632 5631 5630 5629 5628 5626 5625 5621 5620 5622 5621 5621 5620 5618 5617 5617 5616 5616 5613 5611 5609 5606 5604 5602 5599 5597
5611 5613 5616 5619 5618 5617 5617 5619 5620 5620 5617 5616 5616 5618 5622 5615 5616 5620 5618 5616 5615 5615 5613 5613 5612 5611 5610 5611 5610 5610 5608 5606 5606 5605 5603 5602 5600 5600 5599 5596 5594 5591 5589 5586
5598 5602 5602 5603 5605 5605 5607 5609 5608 5608 5606 5603 5605 5606 5609 5604 5601 5608 5605 5602 5603 5603 5601 5601 5601 5601 5601 5600 5598 5598 5597 5596 5595 5593 5591 5590 5589 5588 5586 5584 5582 5580 5578 5575
5586 5590 5590 5589 5591 5590 5595 5599 5598 5597 5595 5590 5587 5599 5594 5592 5587 5595 5595 5591 5593 5590 5589 5590 5590 5590 5589 5587 5585 5584 5584 5585 5584 5582 5580 5578 5576 5576 5574 5573 5571 5570 5567 5564
5576 5579 5577 5579 5577 5575 5580 5588 5586 5584 5580 5575 5575 5585 5581 5580 5575 5578 5581 5581 5580 5579 5579 5576 5574 5573 5572 5572 5572 5571 5571 5571 5570 5569 5567 5567 5566 5566 5564 5563 5562 5560 5558 5554
5565 5567 5565 5568 5565 5563 5572 5576 5572 5569 5565 5565 5564 5566 5566 5566 5564 5563 5562 5563 5564 5565 5563 5563 5562 5561 5561 5560 5560 5560 5560 5559 5559 5558 5558 5557 5557 5555 5554 5553 5551 5550 5548 5545
5553 5555 5555 5554 5557 5556 5564 5564 5558 5553 5553 5554 5551 5553 5553 5552 5553 5551 5550 5549 5551 5551 5550 5550 5550 5550 5550 5550 5549 5548 5547 5547 5547 5547 5547 5546 5545 5544 5544 5543 5541 5540 5537 5535
5541 5544 5543 5548 5546 5545 5558 5547 5545 5540 5544 5543 5543 5542 5542 5541 5541 5539 5538 5537 5538 5538 5538 5538 5538 5538 5538 5536 5536 5536 5536 5536 5535 5535 5536 5535 5535 5534 5533 5532 5532 5529 5527 5524
5530 5533 5534 5537 5534 5536 5544 5536 5535 5534 5538 5536 5536 5535 5534 5533 5532 5530 5528 5527 5526 5525 5525 5525 5524 5524 5524 5524 5523 5524 5524 5524 5525 5525 5525 5524 5524 5523 5523 5522 5521 5519 5517 5514
5520 5522 5526 5528 5527 5527 5530 5527 5527 5528 5528 5529 5530 5529 5527 5526 5524 5523 5521 5520 5518 5516 5515 5514 5513 5514 5514 5513 5514 5513 5514 5514 5514 5514 5515 5514 5513 5512 5511 5511 5510 5509 5507 5504
5508 5513 5515 5518 5520 5520 5520 5520 5520 5520 5521 5522 5522 5521 5521 5520 5518 5516 5515 5513 5510 5508 5505 5503 5503 5503 5504 5504 5503 5503 5503 5503 5503 5504 5504 5503 5503 5502 5501 5501 5500 5498 5496 5494
5498 5502 5504 5507 5512 5511 5511 5512 5513 5513 5513 5513 5513 5513 5513 5513 5511 5509 5508 5506 5503 5499 5495 5494 5494 5494 5495 5495 5495 5495 5494 5494 5494 5494 5493 5493 5493 5492 5491 5490 5489 5488 5486 5484
5488 5491 5496 5499 5499 5501 5502 5502 5503 5504 5504 5505 5505 5505 5505 5504 5502 5500 5498 5496 5493 5490 5486 5485 5485 5486 5486 5487 5487 5486 5485 5484 5483 5483 5483 5483 5482 5482 5481 5480 5479 5477 5476 5475
5479 5484 5486 5491 5489 5490 5493 5493 5495 5496 5496 5496 5496 5496 5495 5493 5491 5489 5487 5485 5483 5480 5478 5477 5477 5479 5480 5480 5479 5477 5476 5474 5474 5473 5473 5473 5472 5472 5471 5470 5469 5468 5467 5466
Wind_Speed
35 34 26 26 31 34 31 31 31 24 29 31 32 32 31 34 37 37 36 35 35 34 36 36 37 39 39 40 42 42 43 44 46 47 48 50 50 51 53 54 55 58 59 59
36 37 28 33 31 32 33 34 31 26 29 33 33 34 34 35 35 38 40 40 39 40 40 42 44 46 45 44 45 47 46 47 48 50 52 53 55 56 56 58 59 59 58 58
40 38 34 36 34 33 32 35 34 36 33 36 38 34 36 36 40 39 42 42 43 44 46 48 49 49 49 49 48 49 50 51 52 54 55 57 58 58 57 59 61 60 59 56
44 40 41 39 41 36 38 38 36 39 41 39 41 40 38 40 38 39 39 42 44 47 47 48 49 50 51 52 52 52 54 56 57 58 60 59 58 58 57 56 57 58 58 58
48 43 41 43 43 44 42 43 42 43 44 47 47 48 47 47 44 43 41 44 45 48 49 50 49 51 53 53 53 54 56 59 61 61 58 56 55 54 53 55 55 54 53 52
47 49 49 48 47 49 49 49 50 49 50 53 51 51 48 49 53 53 49 46 47 49 51 52 54 56 56 55 55 56 57 58 57 55 54 53 53 52 51 54 54 51 49 47
47 47 47 50 53 50 49 50 50 55 57 57 55 59 55 58 57 55 56 58 57 55 55 56 57 57 57 58 57 57 56 54 53 52 53 50 49 50 53 55 51 51 48 46
49 50 49 48 48 53 55 51 51 54 53 53 55 61 60 60 60 60 58 58 59 60 61 61 59 55 51 50 52 52 52 51 49 47 46 46 48 51 54 52 48 48 48 47
49 52 55 49 49 49 49 54 46 47 51 54 58 58 58 57 59 60 60 59 60 60 61 60 55 53 53 52 52 50 46 44 43 42 41 46 47 49 47 43 45 48 49 47
52 51 52 51 49 47 47 47 48 51 52 53 54 53 52 58 60 59 59 60 61 62 61 61 59 53 50 46 42 40 40 39 40 40 40 42 48 47 54 53 50 50 49 46
51 52 53 52 50 50 51 51 50 51 52 50 50 45 53 59 59 59 59 58 57 58 57 57 56 53 50 47 42 39 40 39 39 40 41 50 45 49 48 47 49 49 45 46
46 45 45 47 50 47 47 48 49 51 52 54 56 58 59 60 61 60 60 59 60 61 61 60 56 51 47 43 40 41 40 41 44 50 51 46 48 44 46 47 47 46 46 49
45 46 44 47 48 48 48 47 49 52 54 57 54 55 55 56 55 52 51 52 52 51 50 49 48 48 48 45 42 42 47 48 48 43 40 41 41 48 46 45 45 45 47 44
48 47 46 46 49 53 50 48 50 53 47 49 54 51 48 51 49 47 47 47 46 45 45 45 45 45 47 45 46 44 44 41 41 40 39 42 45 49 51 46 44 43 42 44
51 51 50 50 51 51 52 48 47 40 40 44 45 46 43 44 46 42 44 46 47 45 45 45 41 38 41 44 47 44 42 39 35 41 43 46 50 44 41 40 41 41 41 41
52 52 54 57 55 55 52 48 52 51 50 50 53 47 47 47 48 42 40 42 41 42 45 44 41 43 44 48 47 40 33 35 40 48 48 40 36 37 36 36 38 39 39 38
54 54 54 53 56 55 58 53 57 57 56 53 54 56 59 57 53 52 52 52 53 53 53 57 58 58 53 41 31 31 32 35 37 38 37 35 36 36 35 36 36 38 35 36
51 49 51 52 54 58 58 57 60 61 56 55 55 56 58 57 53 46 40 41 43 46 46 41 36 35 33 33 33 32 33 36 38 39 38 38 37 34 33 36 35 38 42 40
47 45 44 44 49 52 51 53 56 55 54 49 47 46 40 38 37 33 32 34 35 34 33 34 35 35 36 37 38 38 39 40 40 40 37 35 36 35 36 38 37 41 44 42
49 45 44 42 43 47 38 47 44 41 43 39 33 26 26 25 26 29 30 31 33 34 34 34 35 35 37 38 39 39 38 37 36 35 37 36 36 35 35 36 41 41 42 39
47 45 43 39 39 40 33 35 30 29 26 23 15 12 11 14 16 20 24 27 30 31 33 31 32 35 35 34 34 32 31 31 32 34 35 35 36 37 38 38 38 40 40 40
47 44 36 32 35 37 26 25 26 24 21 16 10 11 11 14 21 20 21 23 26 30 32 32 31 31 32 31 28 29 30 32 34 36 40 39 36 36 38 38 39 39 39 38
34 29 29 30 31 32 23 23 23 23 22 19 15 12 14 18 21 25 27 29 32 32 32 35 36 32 34 34 33 31 34 35 33 33 32 33 35 34 36 37 36 37 36 36
34 35 35 31 33 33 27 26 25 28 28 26 22 19 20 21 21 26 29 30 35 36 31 31 34 38 38 32 27 27 28 29 31 33 36 35 35 36 36 35 34 35 35 33
35 35 32 34 36 33 32 26 27 29 29 32 34 31 25 25 29 36 39 38 37 38 35 26 28 28 19 19 24 28 31 32 33 33 33 35 37 36 34 33 33 33 32 30
27 28 36 33 32 30 30 29 28 26 28 30 30 32 32 34 35 41 39 46 42 39 37 29 20 19 19 22 24 26 29 31 31 32 32 33 34 33 32 31 30 29 29 27
Wind_Direction
264 264 260 248 253 258 256 259 257 253 255 254 256 258 254 250 248 252 259 264 264 266 268 269 270 271 274 277 280 280 281 283 284 284 285 287 286 285 285 284 283 283 286 289
265 268 252 244 242 250 258 261 263 258 260 258 258 259 259 257 254 254 254 256 263 265 266 268 271 275 277 278 279 280 280 281 281 281 282 281 281 281 282 282 284 286 287 290
264 267 253 246 246 247 253 261 265 262 260 259 260 255 264 263 263 260 260 261 260 263 265 267 271 274 277 280 280 279 280 279 279 279 279 279 281 283 284 285 287 288 289 290
262 260 262 250 248 251 252 254 262 265 264 261 261 264 262 268 264 267 268 268 268 267 268 270 273 275 277 279 280 280 280 280 280 280 280 281 283 284 284 286 286 288 290 291
262 259 261 260 255 250 250 251 255 261 266 264 262 263 271 269 273 273 269 269 269 269 271 272 274 275 275 276 277 278 278 278 279 281 282 284 283 282 282 283 285 287 288 288
257 260 261 259 255 252 252 255 261 264 264 264 267 268 271 272 276 276 270 268 266 268 270 271 273 275 275 276 276 275 275 278 280 281 281 279 278 280 282 282 284 286 285 290
258 259 258 256 256 256 256 259 263 263 262 265 267 270 272 274 272 274 277 279 277 272 268 268 269 271 272 273 274 275 275 276 276 275 274 276 279 279 279 282 285 286 285 289
258 258 257 260 260 261 259 259 261 262 266 269 265 266 268 271 272 275 273 273 273 274 274 275 276 276 276 274 272 273 274 272 270 271 276 278 278 278 279 281 281 293 303 300
268 266 266 263 261 259 261 264 265 265 262 262 264 270 272 271 271 271 271 271 272 274 274 276 278 279 278 275 275 277 278 279 280 278 277 277 275 276 278 278 283 291 292 291
266 269 269 271 269 268 268 267 264 266 267 266 271 267 266 268 272 274 273 274 274 274 277 278 279 279 279 280 280 281 282 281 280 272 290 279 271 268 282 289 287 287 288 289
266 266 269 270 268 268 267 267 266 266 267 261 266 267 267 268 269 268 269 270 270 271 273 274 277 280 282 281 280 284 286 285 283 284 282 270 270 292 283 284 284 286 288 293
265 266 264 262 265 262 259 260 260 260 260 261 267 266 267 270 270 272 272 275 275 273 274 275 278 283 283 284 291 294 295 283 275 263 266 276 281 278 284 280 281 284 291 292
256 256 260 264 263 263 263 265 265 265 262 259 269 271 267 269 272 275 278 278 280 281 279 280 283 286 287 286 287 284 267 262 266 267 271 274 281 283 280 280 285 290 290 289
248 250 252 255 258 268 268 264 263 267 266 269 271 273 280 278 274 277 278 281 282 281 280 280 281 283 286 288 270 263 261 260 267 271 280 285 282 277 277 282 285 288 292 294
245 246 248 251 254 260 259 261 259 256 262 265 270 268 274 271 270 271 272 274 276 273 271 274 278 278 279 271 260 264 265 266 272 264 274 273 273 278 282 285 286 291 293 292
250 253 253 254 257 259 256 253 257 260 260 259 260 260 270 268 270 265 263 259 255 247 254 256 250 260 264 280 282 291 283 266 266 268 270 274 278 279 282 286 289 288 286 290
251 253 257 257 261 264 262 262 262 267 270 276 278 272 272 277 278 279 274 271 269 266 265 275 282 288 292 291 277 263 255 255 262 267 270 276 280 281 282 283 282 282 290 295
253 256 264 264 267 270 265 264 268 275 282 284 286 285 282 281 285 290 288 285 282 282 284 284 281 276 274 268 262 261 263 266 267 268 271 275 274 276 280 278 284 279 282 292
253 262 265 269 269 274 271 278 278 281 282 286 284 284 286 285 285 281 276 276 279 278 274 272 268 264 263 264 264 264 263 263 265 268 271 270 271 274 272 278 283 279 285 291
254 258 260 269 272 277 282 280 281 276 281 277 282 283 283 281 277 272 278 277 274 271 268 265 263 263 263 261 261 262 264 266 270 271 270 270 270 274 277 277 279 281 287 292
249 254 258 270 269 275 281 274 269 264 270 272 268 285 316 317 320 313 308 298 291 288 284 275 265 260 262 266 268 268 266 266 266 267 266 266 270 275 277 276 276 281 283 291
245 251 257 265 269 279 278 258 253 250 260 232 265 296 311 318 313 310 313 313 291 281 275 272 263 264 263 264 265 265 265 263 263 265 267 268 279 277 274 274 279 281 285 289
238 244 254 257 273 276 267 250 245 253 258 236 249 287 298 306 312 322 312 311 313 292 273 266 265 261 263 265 266 266 268 269 270 268 270 272 273 273 272 274 279 282 284 286
240 238 248 253 266 268 264 261 246 252 253 241 252 267 294 301 306 310 309 305 303 302 282 270 263 259 263 265 263 272 275 275 273 272 275 275 276 274 275 276 278 280 281 281
228 236 251 256 255 264 268 248 253 254 259 250 256 267 291 291 292 292 293 299 299 297 282 268 264 260 259 273 278 276 275 274 276 274 270 269 270 273 275 276 276 276 276 278
230 236 243 254 255 260 257 253 255 264 262 258 262 268 276 283 284 296 296 296 291 290 290 259 237 246 260 277 283 281 276 274 274 270 266 267 269 272 272 272 274 274 274 275